User: anonymous   Login
Location: Caltech
(34.1382°N, 118.1253°W)
Time: 08:14:42
(UTC-08:00)
Language:

IDEFIX/ARIANE 42P - Orbit

View from above orbital plane
View from above orbital plane
View from above satellite
View from above satellite

Ground track
Ground track

The orbit data is extracted from the following two-line orbital elements,

1 27422U 02021B   14327.54494242  .00000191  00000-0  91433-4 0  6489
2 27422 098.2816 002.3054 0013545 130.4243 036.7672 14.29090433652898
Epoch (UTC): 23 November 2014 13:04:43
Eccentricity: 0.0013545
inclination: 98.2816°
perigee height: 785 km
apogee height: 804 km
right ascension of ascending node: 2.3054°
argument of perigee: 130.4243°
revolutions per day: 14.29090433
mean anomaly at epoch: 36.7672°
orbit number at epoch: 65289

The dashed part of the orbit path shows where the satellite is in the earth's shadow,  

DLR